ONEWEB-0695, 61602

Orbit data source: Space-Track

ONEWEB-0695, 61602 is a payload satellite owned by Eut. One Web (UK) in LEO that was launched on Sun, 20 Oct 2024 UTC via an FALCON 9 launch vehicle from the Air Force Western Test Range (AFWTR). Payload-class satellites include a variety of spacecraft equipped with specific instruments for various scientific and technological missions. These include communications satellites like Starlink; space stations such as the ISS; scientific satellites like the Hubble; Earth observation satellites from companies like Planet Labs, Umbra, and HawkEye 360; GPS; miniature CubeSats for education and research; and military/defense satellites.

Loading next visibility...
Identifier
61602, 2024-188J
Orbit
LEO
Last TLE update
3 hours ago
Origin
Manufacturer
One Web
Mission
Operational Commercial Communications
Bus & Motor
ARROW, Unknown motor
Mass
148 kg wet, ~140 kg dry
Launch date (UTC)
2024-10-20 (8 months ago)
Launch vehicle
FALCON 9
Launch site
Air Force Western Test Range (AFWTR)
Object type
Payload
Rocket body
Debris
Shape & HBR
Trap Box + 2 Pan, 5 m
Radar Cross Section
2.032 m², Medium (>0.1 m² and < 1m²)

Expand to show TLE details & history

TLE from 3 hours ago
0 ONEWEB-0695
1 61602U 24188J   25182.22732705 -.00000336  00000-0 -98348-3 0  9993
2 61602  87.8837  91.0476 0002279  64.0572 296.0790 13.11414982 36713
Epoch: 2025-07-01T05:27Z
TLE epoch observation values (Epoch: 2025-07-01T05:27:21.057Z)
Latitude
-0.00006°
Longitude
89.68405°
Altitude
1,219.819 km
Speed
7.245 km/s
True Right ascension
06h 04m 11s
True Declination
0° 00' 00"
Sunlit
Object was in daylight at epoch
Visualization orbit readout
Latitude
-69.19991°
Longitude
-84.78733°
Altitude
1,245.44 km
Speed
7.231 km/s
Apparent Right ascension
09h 55m 14s
Apparent Declination
-76° 12' 51"
Sunlit
Object is in full shadow
Visualization observer readout
Local Sidereal Time
20:11:21
Azimuth
189.749° SSW
Elevation
-51.951°
Doppler factor
1
Orbital elements
Apogee altitude
1,216.539 km
Perigee altitude
1,213.078 km
Semi-major axis
7,592.946 km
Eccentricity
0.00023
Inclination
87.8837°
RAAN
91.0476°
Arg. of periapsis
64.0572°
True anomaly
Unknown
Mean anomaly
296.079°
Eccentric anomaly
Unknown
Mean motion
3.28041 °/min
Orbital period
109.74 mins
BSTAR
-0.00098348
Loading maneuver chart data...
Loading SW <> Apogee altitude chart data...
Loading historical data...
Loading historical data...
Loading historical data...
Loading historical data...
Loading historical data...
Loading historical data...
Loading historical data...

ONEWEB-0695 Visibility forecast

Observer location: undefined°, undefined°

Span
Click to sort rows by Start time (UTC) header in descending order
Start Az.
Max El. time (UTC)
Max El. Az.
Max El.
End time (UTC)
End Az.
6 mins2025-07-01 16:37:12.940Z93.343° ESE2025-07-01 16:40:12.940Z67.322° ENE13.859°2025-07-01 16:43:12.940Z42.503° NE
12 mins2025-07-01 18:23:12.940Z176.739° S2025-07-01 18:28:12.940Z157.184° SSE44.722°2025-07-01 18:35:12.940Z1.42° NNE
6 mins2025-07-01 20:17:12.940Z267.796° W2025-07-01 20:19:12.940Z285.93° WNW15.123°2025-07-01 20:23:12.940Z320.363° NNW
13 mins2025-07-02 05:52:12.940Z5.45° NNE2025-07-02 05:58:12.940Z82.402° E43.386°2025-07-02 06:05:12.940Z171.435° S
8 mins2025-07-02 07:44:12.940Z316.907° NNW2025-07-02 07:47:12.940Z287.971° WNW19.079°2025-07-02 07:52:12.940Z243.514° WSW
|